Overview Statistics Trail Chart Weather Telemetry Raw packets
 

This is the latest recevied weather packets stored in our database for station/object KE6YLF. If no packets are shown the sender has not sent any weather packets the latest 10 day(s).

<< 30 31 32 33 34 35 36 >>
Time Temp. Humidity Pressure Rain* Wind** Luminosity Snow
1788483724 35° C 35% 1073.4 hPa 0 mm - - -
1788483418 35.56° C 35% 1073.3 hPa 0 mm - - -
1788483114 36.11° C 35% 1073.2 hPa 0 mm - - -
1788482809 35.56° C 37% 1073.2 hPa 0 mm - - -
1788482504 35.56° C 37% 1073.1 hPa 0 mm - - -
1788482200 35.56° C 36% 1073.3 hPa 0 mm - - -
1788481896 36.11° C 36% 1073.3 hPa 0 mm - - -
1788481591 36.11° C 36% 1073.2 hPa 0 mm - - -
1788481286 36.67° C 34% 1073.1 hPa 0 mm - - -
1788480981 36.67° C 32% 1073.1 hPa 0 mm - - -
1788480680 36.67° C 35% 1073 hPa 0 mm - - -
1788480375 36.67° C 35% 1073.1 hPa 0 mm - - -
1788480071 37.22° C 35% 1073.1 hPa 0 mm - - -
1788479771 36.67° C 36% 1073 hPa 0 mm - - -
1788479467 36.67° C 36% 1073.1 hPa 0 mm - - -
1788479162 37.22° C 34% 1073.1 hPa 0 mm - - -
1788478858 36.67° C 35% 1073.3 hPa 0 mm - - -
1788478553 36.67° C 36% 1073.2 hPa 0 mm - - -
1788478249 37.78° C 35% 1073.1 hPa 0 mm - - -
1788477944 36.67° C 36% 1073.1 hPa 0 mm - - -
1788477639 37.22° C 36% 1073.3 hPa 0 mm - - -
1788477333 37.22° C 35% 1073.1 hPa 0 mm - - -
1788477027 36.67° C 37% 1073.2 hPa 0 mm - - -
1788476724 36.67° C 37% 1073.3 hPa 0 mm - - -
1788476422 37.78° C 35% 1073.5 hPa 0 mm - - -

* Rain latest hour (hover to see other rain measurements)
** Current wind speed in m/s (hover to see current wind gust speed)